Cedar Falls, IA

5:29 AM CST on February 24, 2017 (GMT -0600)
Waterloo Municipal

Weather History for KALO - December, 2013

Change the Weather History Date:

Saturday, December 21, 2013

  Actual Average Record
Temperature  
Mean Temperature 24 °F 20 °F  
Max Temperature 26 °F 29 °F 56 °F (1921)
Min Temperature 21 °F 12 °F -27 °F (1963)
Degree Days  
Heating Degree Days 41 45  
Month to date heating degree days 999 871  
Since 1 July heating degree days 2605 2354  
Cooling Degree Days 0 0  
Month to date cooling degree days 0 0  
Year to date cooling degree days 837 799  
Moisture  
Dew Point 21 °F    
Average Humidity 91    
Maximum Humidity 100    
Minimum Humidity 81    
Precipitation  
Precipitation 0.01 in 0.03 in 0.83 in (1984)
Month to date precipitation 0.40 0.88  
Year to date precipitation 40.34 34.28  
Snow  
Snow T in 0.40 in 6.00 in (1914)
Month to date snowfall 7.3 6.9  
Since 1 July snowfall 13.2 10.3  
Snow Depth 0.00 in    
Sea Level Pressure  
Sea Level Pressure 29.86 in    
Wind  
Wind Speed 10 mph (North)    
Max Wind Speed 20 mph    
Max Gust Speed 23 mph    
Visibility 6 miles    
Events Snow    
T = Trace of Precipitation, MM = Missing Value Source: NWS Daily Summary

Daily Weather History Graph

Daily Weather History Graph

Search for Another Location

Airport or City:

Trip Planner

Search our weather history database for the weather conditions in past years. The results will help you decide how hot, cold, wet, or windy it might be!

Date:

Astronomy

Dec. 21, 2013 Rise Set
Actual Time 7:36 AM CST 4:39 PM CST
Civil Twilight 7:04 AM CST 5:11 PM CST
Nautical Twilight 6:28 AM CST 5:47 PM CST
Astronomical Twilight 5:54 AM CST 6:21 PM CST
Moon 9:01 PM CST (12/21) 9:58 AM CST (12/21)
Length of Visible Light 10h 07m
Length of Day
9h 03m
Waning Gibbous, 84% of the Moon is Illuminated
Dec 21
Waning Gibbous
Dec 25
Last Quarter
Jan 1
New
Jan 7
First Quarter
Jan 15
Full

Hourly Weather History & Observations

Time (CST) Temp. Windchill Dew Point Humidity Pressure Visibility Wind Dir Wind Speed Gust Speed Precip Events Conditions
12:54 AM 21.9 °F 13.4 °F 21.0 °F 96% 29.88 in 7.0 mi West 6.9 mph - N/A   Overcast
1:54 AM 21.9 °F 15.7 °F 19.9 °F 92% 29.90 in 6.0 mi WNW 4.6 mph - N/A   Overcast
2:54 AM 21.9 °F 11.7 °F 19.9 °F 92% 29.89 in 7.0 mi NW 9.2 mph - N/A   Overcast
3:02 AM 21.9 °F 11.7 °F 19.9 °F 92% 29.84 in 7.0 mi NW 9.2 mph - N/A   Overcast
3:13 AM 21.9 °F 11.7 °F 19.9 °F 92% 29.83 in 7.0 mi NW 9.2 mph - N/A   Overcast
3:54 AM 21.0 °F 9.9 °F 19.9 °F 96% 29.86 in 6.0 mi NW 10.4 mph - N/A   Overcast
4:54 AM 21.9 °F 12.5 °F 19.9 °F 92% 29.86 in 5.0 mi NNW 8.1 mph - N/A   Overcast
5:54 AM 21.9 °F 11.7 °F 19.0 °F 89% 29.88 in 7.0 mi North 9.2 mph - N/A   Overcast
6:27 AM 21.9 °F 12.5 °F 19.0 °F 89% 29.84 in 7.0 mi North 8.1 mph - N/A   Overcast
6:54 AM 21.9 °F 13.4 °F 19.9 °F 92% 29.87 in 7.0 mi North 6.9 mph - N/A   Overcast
7:54 AM 21.9 °F 15.7 °F 19.0 °F 89% 29.89 in 7.0 mi North 4.6 mph - N/A   Overcast
8:54 AM 21.9 °F 12.5 °F 19.9 °F 92% 29.90 in 5.0 mi NNW 8.1 mph - N/A   Overcast
9:17 AM 21.9 °F 13.4 °F 19.9 °F 92% 29.87 in 5.0 mi North 6.9 mph - N/A   Overcast
9:49 AM 23.0 °F 13.9 °F 19.4 °F 86% 29.88 in 6.0 mi North 8.1 mph - N/A   Overcast
9:54 AM 23.0 °F 13.9 °F 19.9 °F 88% 29.91 in 6.0 mi North 8.1 mph - N/A   Overcast
10:14 AM 23.0 °F 13.9 °F 19.9 °F 88% 29.86 in 6.0 mi North 8.1 mph - N/A   Overcast
10:40 AM 24.1 °F 14.4 °F 19.9 °F 84% 29.85 in 7.0 mi NNE 9.2 mph - N/A   Overcast
10:54 AM 24.1 °F 13.7 °F 19.9 °F 84% 29.87 in 7.0 mi NNE 10.4 mph - N/A   Overcast
11:54 AM 25.0 °F 18.1 °F 21.0 °F 85% 29.92 in 8.0 mi NNE 5.8 mph - N/A   Overcast
12:54 PM 25.0 °F 16.3 °F 21.9 °F 88% 29.88 in 7.0 mi NNE 8.1 mph - N/A   Overcast
1:29 PM 25.0 °F 15.5 °F 21.9 °F 88% 29.84 in 5.0 mi North 9.2 mph - N/A   Overcast
1:54 PM 25.0 °F 15.5 °F 23.0 °F 92% 29.86 in 5.0 mi NNE 9.2 mph - N/A   Overcast
2:54 PM 25.0 °F 14.8 °F 23.0 °F 92% 29.87 in 5.0 mi North 10.4 mph - N/A   Overcast
3:54 PM 25.0 °F 13.6 °F 23.0 °F 92% 29.86 in 5.0 mi NNE 12.7 mph - N/A   Overcast
4:54 PM 25.0 °F 14.2 °F 23.0 °F 92% 29.84 in 7.0 mi NNE 11.5 mph - N/A   Overcast
5:54 PM 25.0 °F 14.8 °F 23.0 °F 92% 29.87 in 7.0 mi NNE 10.4 mph - N/A   Overcast
6:54 PM 25.0 °F 13.6 °F 23.0 °F 92% 29.87 in 7.0 mi NE 12.7 mph - N/A   Overcast
7:54 PM 25.0 °F 13.1 °F 23.0 °F 92% 29.83 in 7.0 mi NNE 13.8 mph - N/A   Overcast
8:54 PM 25.0 °F 12.6 °F 23.0 °F 92% 29.79 in 5.0 mi NNE 15.0 mph - N/A   Overcast
9:54 PM 26.1 °F 14.0 °F 24.1 °F 92% 29.81 in 5.0 mi NNE 15.0 mph - N/A   Overcast
10:54 PM 26.1 °F 14.5 °F 25.0 °F 96% 29.83 in 5.0 mi NNE 13.8 mph - N/A   Overcast
11:50 PM 26.6 °F 14.7 °F 24.8 °F 93% 29.77 in 2.5 mi NNE 15.0 mph - 0.00 in Snow Light Snow
11:54 PM 26.1 °F 14.0 °F 25.0 °F 96% 29.80 in 2.5 mi NNE 15.0 mph - 0.00 in Snow Light Snow